| time (UTC) | temp C | wind direction | speed KPH | gust KPH | rain 1hr cm | rain 24hr cm | rain mn cm | humidity % | barometer mb |
| 20260505011104 | 14 | 195 | 3.2 | 4.8 | 0.00 | 0.00 | 0.00 | 80 | 1011.8 |
| 20260505010605 | 15 | 195 | 1.6 | 4.8 | 0.00 | 0.00 | 0.00 | 80 | 1011.8 |
| 20260505010106 | 15 | 195 | 3.2 | 4.8 | 0.00 | 0.00 | 0.00 | 80 | 1011.9 |
| 20260505005604 | 15 | 207 | 1.6 | 11.3 | 0.00 | 0.00 | 0.00 | 80 | 1011.9 |
| 20260505005105 | 15 | 211 | 0.0 | 11.3 | 0.00 | 0.00 | 0.00 | 79 | 1011.9 |
| 20260505004604 | 15 | 195 | 1.6 | 4.8 | 0.00 | 0.00 | 0.00 | 80 | 1011.9 |
| 20260505004104 | 15 | 195 | 0.0 | 8.0 | 0.00 | 0.00 | 0.00 | 80 | 1011.9 |
| 20260505003605 | 15 | 195 | 3.2 | 8.0 | 0.00 | 0.00 | 0.00 | 79 | 1011.9 |
| 20260505003104 | 15 | 209 | 1.6 | 8.0 | 0.00 | 0.00 | 0.00 | 80 | 1011.8 |
| 20260505002606 | 15 | 195 | 0.0 | 4.8 | 0.00 | 0.00 | 0.00 | 80 | 1011.9 |
| 20260505002104 | 15 | 195 | 1.6 | 4.8 | 0.00 | 0.00 | 0.00 | 79 | 1011.9 |
| 20260505001604 | 15 | 210 | 1.6 | 4.8 | 0.00 | 0.00 | 0.00 | 78 | 1011.9 |
| 20260505001104 | 15 | 195 | 1.6 | 4.8 | 0.00 | 0.00 | 0.00 | 78 | 1011.8 |
| 20260505000605 | 15 | 195 | 1.6 | 4.8 | 0.00 | 0.00 | 0.00 | 78 | 1011.8 |
| 20260505000104 | 15 | 195 | 0.0 | 4.8 | 0.00 | 0.00 | 0.00 | 77 | 1011.9 |
| 20260504235604 | 15 | 206 | 3.2 | 4.8 | 0.00 | 0.00 | 0.00 | 77 | 1011.8 |
| 20260504235105 | 16 | 200 | 1.6 | 8.0 | 0.00 | 0.00 | 0.00 | 77 | 1011.8 |
| 20260504234605 | 16 | 195 | 3.2 | 9.7 | 0.00 | 0.00 | 0.00 | 76 | 1011.9 |
| 20260504234104 | 16 | 195 | 1.6 | 9.7 | 0.00 | 0.00 | 0.00 | 77 | 1011.9 |
| 20260504233605 | 16 | 195 | 3.2 | 4.8 | 0.00 | 0.00 | 0.00 | 77 | 1012.0 |
| 20260504233104 | 16 | 219 | 1.6 | 9.7 | 0.00 | 0.00 | 0.00 | 77 | 1011.9 |
| 20260504232604 | 16 | 196 | 1.6 | 9.7 | 0.00 | 0.00 | 0.00 | 76 | 1011.9 |
| 20260504232106 | 16 | 209 | 1.6 | 9.7 | 0.00 | 0.00 | 0.00 | 76 | 1011.9 |
| 20260504231105 | 16 | 207 | 1.6 | 12.9 | 0.00 | 0.00 | 0.00 | 76 | 1011.9 |
| 20260504230104 | 16 | 195 | 3.2 | 12.9 | 0.00 | 0.00 | 0.00 | 76 | 1012.0 |
| 20260504225605 | 16 | 213 | 1.6 | 12.9 | 0.00 | 0.00 | 0.00 | 76 | 1012.0 |
| 20260504225104 | 16 | 199 | 3.2 | 12.9 | 0.00 | 0.00 | 0.00 | 76 | 1011.9 |
| 20260504224604 | 16 | 195 | 4.8 | 9.7 | 0.00 | 0.00 | 0.00 | 76 | 1012.0 |
| 20260504224104 | 16 | 199 | 3.2 | 8.0 | 0.00 | 0.00 | 0.00 | 75 | 1012.0 |
| 20260504223105 | 16 | 196 | 4.8 | 12.9 | 0.00 | 0.00 | 0.00 | 75 | 1012.0 |
| 20260504222605 | 17 | 195 | 3.2 | 12.9 | 0.00 | 0.00 | 0.00 | 75 | 1012.1 |
| 20260504222104 | 17 | 195 | 3.2 | 12.9 | 0.00 | 0.00 | 0.00 | 74 | 1012.2 |
| 20260504221605 | 17 | 210 | 1.6 | 12.9 | 0.00 | 0.00 | 0.00 | 74 | 1012.2 |
| 20260504221106 | 17 | 195 | 3.2 | 12.9 | 0.00 | 0.00 | 0.00 | 74 | 1012.2 |
| 20260504220105 | 17 | 203 | 3.2 | 9.7 | 0.00 | 0.00 | 0.00 | 73 | 1012.2 |
| 20260504215604 | 17 | 221 | 3.2 | 12.9 | 0.00 | 0.00 | 0.00 | 74 | 1012.3 |
| 20260504215104 | 17 | 207 | 1.6 | 12.9 | 0.00 | 0.00 | 0.00 | 73 | 1012.2 |
| 20260504214104 | 17 | 212 | 1.6 | 12.9 | 0.00 | 0.00 | 0.00 | 74 | 1012.3 |
| 20260504213604 | 17 | 196 | 3.2 | 8.0 | 0.00 | 0.00 | 0.00 | 73 | 1012.3 |
| 20260504211604 | 17 | 195 | 1.6 | 14.5 | 0.00 | 0.00 | 0.00 | 74 | 1012.3 |
| 20260504211105 | 17 | 195 | 3.2 | 12.9 | 0.00 | 0.00 | 0.00 | 72 | 1012.4 |
| 20260504210604 | 18 | 210 | 3.2 | 14.5 | 0.00 | 0.00 | 0.00 | 74 | 1012.4 |
| 20260504210104 | 17 | 195 | 4.8 | 14.5 | 0.00 | 0.00 | 0.00 | 74 | 1012.4 |
| 20260504205606 | 17 | 213 | 3.2 | 9.7 | 0.00 | 0.00 | 0.00 | 74 | 1012.4 |
| 20260504205104 | 17 | 209 | 1.6 | 8.0 | 0.00 | 0.00 | 0.00 | 74 | 1012.4 |
| 20260504204604 | 17 | 204 | 3.2 | 8.0 | 0.00 | 0.00 | 0.00 | 74 | 1012.3 |
| 20260504204104 | 17 | 204 | 1.6 | 12.9 | 0.00 | 0.00 | 0.00 | 74 | 1012.3 |
| 20260504203604 | 17 | 203 | 4.8 | 12.9 | 0.00 | 0.00 | 0.00 | 75 | 1012.3 |
| 20260504203104 | 17 | 204 | 4.8 | 8.0 | 0.00 | 0.00 | 0.00 | 74 | 1012.3 |
| 20260504202604 | 17 | 200 | 3.2 | 12.9 | 0.00 | 0.00 | 0.00 | 75 | 1012.2 |
| 20260504202104 | 17 | 195 | 1.6 | 12.9 | 0.00 | 0.00 | 0.00 | 75 | 1012.2 |
| 20260504201604 | 17 | 211 | 3.2 | 9.7 | 0.00 | 0.00 | 0.00 | 75 | 1012.2 |
| 20260504201105 | 17 | 208 | 1.6 | 12.9 | 0.00 | 0.00 | 0.00 | 74 | 1012.3 |
| 20260504200104 | 17 | 200 | 4.8 | 14.5 | 0.00 | 0.00 | 0.00 | 75 | 1012.4 |
| 20260504195605 | 17 | 204 | 3.2 | 14.5 | 0.00 | 0.00 | 0.00 | 74 | 1012.3 |
| 20260504195104 | 17 | 195 | 3.2 | 16.1 | 0.00 | 0.00 | 0.00 | 76 | 1012.4 |
| 20260504194605 | 17 | 195 | 4.8 | 16.1 | 0.00 | 0.00 | 0.00 | 76 | 1012.4 |
| 20260504194105 | 17 | 195 | 1.6 | 14.5 | 0.00 | 0.00 | 0.00 | 77 | 1012.3 |
| 20260504193604 | 17 | 204 | 6.4 | 14.5 | 0.00 | 0.00 | 0.00 | 77 | 1012.4 |
| 20260504193105 | 16 | 213 | 1.6 | 14.5 | 0.00 | 0.00 | 0.00 | 78 | 1012.4 |
| 20260504192104 | 16 | 203 | 3.2 | 14.5 | 0.00 | 0.00 | 0.00 | 76 | 1012.4 |
| 20260504191105 | 16 | 196 | 1.6 | 8.0 | 0.00 | 0.00 | 0.00 | 79 | 1012.3 |
| 20260504190104 | 16 | 212 | 1.6 | 8.0 | 0.00 | 0.00 | 0.00 | 78 | 1012.3 |
| 20260504185604 | 16 | 196 | 3.2 | 9.7 | 0.00 | 0.00 | 0.00 | 78 | 1012.3 |
| 20260504185104 | 16 | 212 | 1.6 | 12.9 | 0.00 | 0.00 | 0.00 | 78 | 1012.3 |
| 20260504184604 | 16 | 195 | 1.6 | 12.9 | 0.00 | 0.00 | 0.00 | 79 | 1012.4 |
| 20260504184104 | 16 | 195 | 4.8 | 12.9 | 0.00 | 0.00 | 0.00 | 80 | 1012.4 |
| 20260504183604 | 15 | 196 | 1.6 | 8.0 | 0.00 | 0.00 | 0.00 | 80 | 1012.4 |
| 20260504182605 | 15 | 195 | 4.8 | 14.5 | 0.00 | 0.00 | 0.00 | 80 | 1012.2 |
| 20260504182106 | 15 | 199 | 1.6 | 4.8 | 0.00 | 0.00 | 0.00 | 80 | 1012.3 |
| 20260504181606 | 15 | 210 | 1.6 | 8.0 | 0.00 | 0.00 | 0.00 | 81 | 1012.2 |
| 20260504181105 | 15 | 208 | 1.6 | 9.7 | 0.00 | 0.00 | 0.00 | 80 | 1012.2 |
| 20260504180604 | 15 | 209 | 1.6 | 9.7 | 0.00 | 0.00 | 0.00 | 81 | 1012.2 |
| 20260504175605 | 15 | 195 | 3.2 | 9.7 | 0.00 | 0.00 | 0.00 | 81 | 1012.2 |
| 20260504175104 | 15 | 202 | 1.6 | 8.0 | 0.00 | 0.00 | 0.00 | 82 | 1012.3 |
| 20260504174104 | 15 | 195 | 1.6 | 9.7 | 0.00 | 0.00 | 0.00 | 83 | 1012.2 |
| 20260504173604 | 15 | 209 | 1.6 | 12.9 | 0.00 | 0.00 | 0.00 | 83 | 1012.1 |
| 20260504173103 | 14 | 195 | 1.6 | 12.9 | 0.00 | 0.00 | 0.00 | 84 | 1012.1 |
| 20260504172604 | 14 | 200 | 4.8 | 12.9 | 0.00 | 0.00 | 0.00 | 84 | 1012.1 |
| 20260504172105 | 14 | 195 | 1.6 | 9.7 | 0.00 | 0.00 | 0.00 | 84 | 1012.1 |
| 20260504171104 | 13 | 228 | 1.6 | 9.7 | 0.00 | 0.00 | 0.00 | 84 | 1012.0 |
| 20260504170604 | 13 | 206 | 1.6 | 14.5 | 0.00 | 0.00 | 0.00 | 84 | 1011.9 |
| 20260504160104 | 13 | 195 | 1.6 | 12.9 | 0.00 | 0.00 | 0.00 | 87 | 1011.5 |
| 20260504151106 | 12 | 195 | 1.6 | 9.7 | 0.00 | 0.00 | 0.00 | 88 | 1011.3 |
| 20260504150605 | 12 | 196 | 3.2 | 9.7 | 0.00 | 0.00 | 0.00 | 88 | 1011.3 |
| 20260504150105 | 12 | 195 | 1.6 | 9.7 | 0.00 | 0.00 | 0.00 | 88 | 1011.2 |
| 20260504141104 | 12 | 195 | 3.2 | 8.0 | 0.00 | 0.00 | 0.00 | 88 | 1010.9 |
| 20260504140603 | 12 | 195 | 1.6 | 8.0 | 0.00 | 0.00 | 0.00 | 88 | 1010.9 |
| 20260504140104 | 12 | 195 | 1.6 | 8.0 | 0.00 | 0.00 | 0.00 | 88 | 1010.8 |
| 20260504130606 | 12 | 195 | 3.2 | 9.7 | 0.00 | 0.00 | 0.00 | 89 | 1010.4 |
| 20260504130104 | 12 | 195 | 3.2 | 9.7 | 0.00 | 0.00 | 0.00 | 89 | 1010.4 |
| 20260504120105 | 12 | 195 | 3.2 | 12.9 | 0.00 | 0.00 | 0.00 | 88 | 1010.1 |
| 20260504110604 | 12 | 195 | 3.2 | 14.5 | 0.00 | 0.00 | 0.00 | 88 | 1009.7 |
| 20260504110103 | 12 | 195 | 3.2 | 14.5 | 0.00 | 0.00 | 0.00 | 88 | 1009.7 |
| 20260504100604 | 12 | 198 | 3.2 | 14.5 | 0.00 | 0.00 | 0.00 | 87 | 1009.6 |
| 20260504100103 | 12 | 195 | 4.8 | 14.5 | 0.00 | 0.00 | 0.00 | 87 | 1009.5 |
| 20260504090105 | 12 | 195 | 1.6 | 8.0 | 0.00 | 0.00 | 0.00 | 86 | 1009.3 |
| 20260504081605 | 12 | 195 | 1.6 | 4.8 | 0.00 | 0.00 | 0.00 | 84 | 1009.1 |
| 20260504080606 | 12 | 195 | 1.6 | 9.7 | 0.00 | 0.00 | 0.00 | 84 | 1008.9 |
| 20260504080106 | 12 | 195 | 3.2 | 4.8 | 0.00 | 0.00 | 0.00 | 83 | 1009.0 |
| 20260504070106 | 12 | 233 | 1.6 | 4.8 | 0.00 | 0.00 | 0.00 | 80 | 1008.3 |
| 20260504050605 | 14 | 212 | 0.0 | 0.0 | 0.00 | 0.00 | 0.00 | 75 | 1007.5 |
| 20260504050105 | 14 | 212 | 0.0 | 0.0 | 0.00 | 0.00 | 0.00 | 75 | 1007.5 |
| 20260504045605 | 14 | 212 | 0.0 | 0.0 | 0.00 | 0.00 | 0.00 | 75 | 1007.5 |
| 20260504045105 | 15 | 212 | 0.0 | 0.0 | 0.00 | 0.00 | 0.00 | 74 | 1007.4 |
| 20260504044605 | 15 | 212 | 0.0 | 0.0 | 0.00 | 0.00 | 0.00 | 73 | 1007.3 |
| 20260504044106 | 15 | 212 | 0.0 | 0.0 | 0.00 | 0.00 | 0.00 | 73 | 1007.3 |
| 20260504043105 | 15 | 212 | 0.0 | 1.6 | 0.00 | 0.00 | 0.00 | 72 | 1007.3 |
| 20260504042604 | 15 | 212 | 0.0 | 1.6 | 0.00 | 0.00 | 0.00 | 72 | 1007.3 |
| 20260504042105 | 15 | 212 | 0.0 | 3.2 | 0.00 | 0.00 | 0.00 | 72 | 1007.3 |
| 20260504041605 | 15 | 212 | 0.0 | 3.2 | 0.00 | 0.00 | 0.00 | 71 | 1007.3 |
| 20260504041105 | 16 | 212 | 0.0 | 1.6 | 0.00 | 0.00 | 0.00 | 70 | 1007.3 |
| 20260504040605 | 16 | 212 | 0.0 | 1.6 | 0.00 | 0.00 | 0.00 | 69 | 1007.2 |
| 20260504040105 | 16 | 212 | 0.0 | 0.0 | 0.00 | 0.00 | 0.00 | 68 | 1007.2 |